User: anonymous   Login
Location: Hancock Field Station
(44.9202°N, 120.4259°W)
Time: 15:10:57
(UTC-07:00)
Language:

Nadezhda 4 Rocket - Orbit

View from above orbital plane
View from above orbital plane
View from above satellite
View from above satellite

Ground track
Ground track

The orbit data is extracted from the following two-line orbital elements,

1 23180U 94041B   15085.45662208  .00000089  00000-0  73400-4 0  9999
2 23180 082.9491 176.5385 0028410 348.8607 053.8978 13.77881305 40844
Epoch (UTC): 26 March 2015 10:57:32
Eccentricity: 0.0028410
inclination: 82.9491°
perigee height: 950 km
apogee height: 992 km
right ascension of ascending node: 176.5385°
argument of perigee: 348.8607°
revolutions per day: 13.77881305
mean anomaly at epoch: 53.8978°
orbit number at epoch: 4084

The dashed part of the orbit path shows where the satellite is in the earth's shadow,  

DLR